Effective Sunday, March 17, 2024, the National Weather Service National Data Buoy Center will discontinue its Dial-A-Buoy Interactive Voice Response system. For more information, see Service Change Notice 24-06 (PDF).

Station 44027 (LLNR 4) - Jonesport, ME - 20 NM SE of Jonesport, ME Image indicating link to RSS feed of recent meteorological observations for station 44027


Conditions at 44027 as of
(8:00 pm AST on 02/27/2024)
0000 GMT on 02/28/2024:
     

Click on the graph icon in the table below to see a time series plot of the last five days of that observation.

5-day plot - Wind Direction Wind Direction (WDIR):SSE ( 150 deg true )
5-day plot - Wind Speed Wind Speed (WSPD): 13.6 kts
5-day plot - Wind Gust Wind Gust (GST): 17.5 kts
5-day plot - Atmospheric Pressure Atmospheric Pressure (PRES):30.08 in
5-day plot - Pressure Tendency Pressure Tendency (PTDY):-0.03 in ( Falling )
5-day plot - Water Temperature Water Temperature (WTMP): 39.4 °F
5-day plot - Wind Speed at 10 Meters Wind Speed at 10 meters (WSPD10M): 13.6 kts
5-day plot - Wind Speed at 20 Meters Wind Speed at 20 meters (WSPD20M): 15.5 kts
5-day plot -  Wind Speed, Wind Gust and Atmospheric Pressure Combined plot of Wind Speed, Gust, and Air Pressure
Supplemental Measurements
Highest 1-minute Wind Speed
Time (AST)5-day plot - 1-Minute Wind Speed WSPD 5-day plot - 1-Minute Wind Direction WDIR
7:58 pm 13.6 kts-
Previous observations
TIME
(AST)
5-day plot - Wind Direction
WDIR
 
5-day plot - Wind Speed
WSPD
kts
5-day plot - Wind Gust
GST
kts
5-day plot - Wave Height
WVHT
ft
5-day plot - Dominant Wave Period
DPD
sec
5-day plot - Average Wave Period
APD
sec
5-day plot - Mean Wave Direction
MWD
 
5-day plot - Atmospheric Pressure
PRES
in
5-day plot - Pressure Tendency
PTDY
in
5-day plot - Air Temperature
ATMP
°F
5-day plot - Water Temperature
WTMP
°F
5-day plot - Dew Point
DEWP
°F
5-day plot - Salinity
SAL
psu
5-day plot - Visibility
VIS
nmi
5-day plot - Tide (above MLLW)
TIDE
ft
2024-02-27 07:50 pmSSE 11.7 15.5 3.6 54.4SSE30.09-- 39.4----
2024-02-27 07:40 pmSSE 11.7 13.6----30.09-- 39.4----
2024-02-27 07:30 pmSSE 13.6 15.5----30.10-- 39.4----
2024-02-27 07:10 pmSSE 13.6 17.5 3.6-4.4SSW30.09-- 39.4----
2024-02-27 07:00 pmSSE 15.5 17.5----30.10-0.01- 39.4----
2024-02-27 06:50 pmSSE 13.6 17.5 3.6 54.4SSE30.10-- 39.4----
2024-02-27 06:40 pmSSE 13.6 17.5----30.10-- 39.6----
2024-02-27 06:30 pmSSE 13.6 17.5----30.10-- 39.6----
2024-02-27 06:20 pmSSE 13.6 17.5 3.6 64.4 S30.11-- 39.7----
2024-02-27 06:10 pmSSE 13.6 17.5 3.6-4.4 S30.11-- 39.6----
2024-02-27 06:00 pmSSE 13.6 17.5----30.11+0.00- 39.6----
2024-02-27 05:50 pmSSE 13.6 17.5 3.3 54.5SSE30.11-- 39.4----
2024-02-27 05:40 pmSSE 13.6 17.5----30.11-- 39.4----
2024-02-27 05:30 pmSSE 13.6 15.5----30.11-- 39.4----
2024-02-27 05:20 pmSSE 13.6 15.5 3.3 104.5SSE30.10-- 39.4----
2024-02-27 05:10 pmSSE 13.6 15.5 3.3-4.5SSE30.10-- 39.6----
2024-02-27 05:00 pmSSE 13.6 17.5----30.10-0.03- 39.6----
2024-02-27 04:50 pmSSE 15.5 17.5 3.6 64.7 S30.10-- 39.6----
2024-02-27 04:40 pm SE 11.7 15.5 3.6-4.7 S30.10-- 39.6----
2024-02-27 04:30 pm SE 11.7 13.6----30.10-- 39.6----
2024-02-27 04:20 pm SE 11.7 13.6 3.3 64.7 S30.10-- 39.6----
2024-02-27 04:10 pmSSE 11.7 13.6 3.3-4.7 S30.11-- 39.7----
2024-02-27 04:00 pmSSE 9.7 11.7----30.11-0.04- 39.7----
2024-02-27 03:50 pmSSE 9.7 11.7 3.6 64.7 S30.11-- 39.6----
2024-02-27 03:40 pmSSE 9.7 11.7----30.11-- 39.7----
2024-02-27 03:30 pmSSE 9.7 11.7----30.11-- 39.6----
2024-02-27 03:20 pmSSE 9.7 11.7 3.6 54.6 S30.11-- 39.6----
2024-02-27 03:10 pmSSE 9.7 11.7 3.6-4.6 S30.12-- 39.6----
2024-02-27 03:00 pmSSE 9.7 11.7----30.12-0.04- 39.6----
2024-02-27 02:50 pm S 9.7 13.6 3.9 64.7 S30.12-- 39.6----
2024-02-27 02:40 pm S 9.7 13.6----30.12-- 39.6----
2024-02-27 02:30 pm S 9.7 11.7----30.12-- 39.6----
2024-02-27 02:20 pm S 7.8 9.7 3.6 64.6 S30.12-- 39.6----
2024-02-27 02:10 pm S 7.8 11.7 3.6-4.6 S30.13-- 39.6----
2024-02-27 02:00 pm S 7.8 9.7----30.13-0.04- 39.6----
2024-02-27 01:50 pm S 9.7 13.6 3.6 64.5 S30.13-- 39.6----
2024-02-27 01:40 pm S 11.7 13.6----30.14-- 39.6----
2024-02-27 01:30 pm S 13.6 15.5----30.14-- 39.6----
2024-02-27 01:20 pm S 13.6 15.5 3.9 64.5SSW30.14-- 39.6----
2024-02-27 01:10 pm S 13.6 17.5 3.9-4.5SSW30.14-- 39.6----
2024-02-27 01:00 pm S 13.6 17.5----30.14-0.02- 39.6----
2024-02-27 12:50 pm S 13.6 17.5 3.6 64.3SSW30.15-- 39.6----
2024-02-27 12:40 pm S 15.5 19.4 3.6-4.3SSW30.15-- 39.6----
2024-02-27 12:30 pm S 15.5 19.4----30.15-- 39.4----
2024-02-27 12:20 pm S 15.5 19.4 3.6 64.3SSW30.16-- 39.4----
2024-02-27 12:10 pm S 17.5 19.4 3.6-4.3SSW30.16-- 39.4----
2024-02-27 12:00 pm S 17.5 21.4----30.16-0.01- 39.4----
2024-02-27 11:50 am S 17.5 21.4 3.6 74.4 S30.16-- 39.4----
2024-02-27 11:40 am S 17.5 21.4----30.16-- 39.6----
2024-02-27 11:30 amSSE 15.5 19.4----30.16-- 39.6----
2024-02-27 11:20 amSSE 15.5 19.4 3.9 64.7SSW30.16-- 39.6----
2024-02-27 11:10 amSSE 15.5 19.4 3.9-4.7SSW30.16-- 39.6----
2024-02-27 11:00 amSSE 13.6 17.5----30.16+0.00- 39.6----
2024-02-27 10:50 amSSE 13.6 15.5 3.9 65.1SSW30.17-- 39.6----
2024-02-27 10:40 amSSE 13.6 15.5----30.17-- 39.6----
2024-02-27 10:30 amSSE 13.6 15.5----30.17-- 39.6----
2024-02-27 10:20 amSSE 13.6 15.5 3.6 65.0 S30.17-- 39.6----
2024-02-27 10:10 amSSE 13.6 15.5 3.6-5.0 S30.17-- 39.6----
2024-02-27 10:00 amSSE 13.6 15.5----30.17+0.00- 39.6----
2024-02-27 09:50 amSSE 13.6 15.5 3.6 75.2SSW30.17-- 39.6----
2024-02-27 09:40 amSSE 13.6 15.5 3.6-5.2SSW30.17-- 39.6----
2024-02-27 09:30 amSSE 11.7 13.6----30.17-- 39.6----
2024-02-27 09:20 amSSE 11.7 13.6 3.6 65.4SSW30.17-- 39.6----
2024-02-27 09:10 amSSE 11.7 13.6 3.6-5.4SSW30.17-- 39.6----
2024-02-27 09:00 amSSE 11.7 13.6----30.17+0.02- 39.6----
2024-02-27 08:50 amSSE 11.7 13.6 3.9 75.6SSW30.17-- 39.4----
2024-02-27 08:40 am SE 9.7 13.6----30.17-- 39.4----
2024-02-27 08:30 amSSE 9.7 11.7----30.17-- 39.4----
2024-02-27 08:20 amSSE 7.8 9.7 3.6 75.7 S30.17-- 39.4----
2024-02-27 08:10 amSSE 7.8 9.7 3.6-5.7 S30.17-- 39.4----
2024-02-27 08:00 amSSE 7.8 9.7----30.17+0.04- 39.4----
2024-02-27 07:50 amSSE 7.8 9.7 3.9 75.9 S30.17-- 39.4----
2024-02-27 07:40 amSSE 7.8 9.7----30.16-- 39.4----
2024-02-27 07:30 amSSE 7.8 9.7----30.17-- 39.4----
2024-02-27 07:20 amSSE 7.8 9.7 3.9 75.8SSW30.17-- 39.4----
2024-02-27 07:10 amSSE 5.8 7.8 3.9-5.8SSW30.16-- 39.4----
2024-02-27 07:00 amSSE 5.8 7.8----30.16+0.05- 39.4----
2024-02-27 06:50 amSSE 5.8 7.8 3.9 75.8SSW30.16-- 39.4----
2024-02-27 06:40 am SE 5.8 7.8----30.16-- 39.6----
2024-02-27 06:30 am SE 5.8 7.8----30.16-- 39.6----
2024-02-27 06:20 am SE 5.8 7.8 3.6 75.8SSW30.16-- 39.6----
2024-02-27 06:10 am SE 5.8 5.8 3.6-5.8SSW30.15-- 39.6----
2024-02-27 06:00 am SE 3.9 5.8----30.15+0.05- 39.6----
2024-02-27 05:50 amESE 3.9 5.8 3.6 75.7SSW30.15-- 39.6----
2024-02-27 05:40 amESE 3.9 3.9----30.14-- 39.4----
2024-02-27 05:30 amESE 3.9 3.9----30.14-- 39.4----
2024-02-27 05:20 amESE 3.9 3.9 3.6 76.0SSW30.13-- 39.4----
2024-02-27 05:10 am SE 1.9 3.9 3.6-6.0SSW30.13-- 39.4----
2024-02-27 05:00 amESE 1.9 3.9----30.13+0.03- 39.4----
2024-02-27 04:50 amESE 1.9 3.9 3.6 86.0SSW30.12-- 39.4----
2024-02-27 04:40 amESE 1.9 3.9----30.12-- 39.4----
2024-02-27 04:30 amESE 1.9 3.9----30.12-------
2024-02-27 04:20 am- 0.0 1.9 4.3 86.1SSW30.12-- 39.4----
2024-02-27 04:10 am- 0.0 1.9 4.3-6.1SSW30.11-- 39.4----
2024-02-27 04:00 am- 0.0 0.0----30.11+0.04- 39.4----
2024-02-27 03:50 am- 0.0 0.0 4.3 75.9SSW30.11-- 39.4----
2024-02-27 03:40 am- 0.0 1.9----30.11-- 39.4----
2024-02-27 03:30 am- 0.0 1.9----30.11-- 39.4----
2024-02-27 03:20 am- 0.0 3.9 4.6 86.1SSW30.11-- 39.4----
2024-02-27 03:10 am W 1.9 3.9 4.6-6.1SSW30.10-- 39.4----
2024-02-27 03:00 amWNW 3.9 3.9----30.10+0.05- 39.4----
2024-02-27 02:50 amWNW 3.9 5.8 4.3 75.9SSW30.10-- 39.4----
2024-02-27 02:40 amWNW 3.9 5.8----30.10-- 39.4----
2024-02-27 02:30 am NW 3.9 7.8----30.10-- 39.4----
2024-02-27 02:20 am NW 5.8 7.8 4.9 75.9 S30.09-- 39.4----
2024-02-27 02:10 am NW 5.8 7.8 4.9-5.9 S30.09-- 39.4----
2024-02-27 02:00 amWNW 5.8 7.8----30.09+0.05- 39.4----
2024-02-27 01:50 amWNW 3.9 5.8 4.6 75.9SSW30.09-- 39.4----
2024-02-27 01:40 amWNW 3.9 5.8----30.09-- 39.4----
2024-02-27 01:30 am NW 5.8 7.8----30.08-- 39.4----
2024-02-27 01:20 amWNW 5.8 7.8 4.9 75.9SSW30.08-- 39.4----
2024-02-27 01:10 amWNW 5.8 7.8 4.9-5.9SSW30.08-------
2024-02-27 01:00 amWNW 5.8 9.7----30.08+0.05- 39.4----
2024-02-27 12:50 amWNW 5.8 7.8 5.2 75.8SSW30.07-- 39.4----
2024-02-27 12:40 am W 5.8 7.8----30.07-- 39.4----
2024-02-27 12:30 amWNW 7.8 9.7----30.06-- 39.4----
2024-02-27 12:20 amWNW 5.8 7.8 5.6 75.6SSW30.06-- 39.6----
2024-02-27 12:10 amWNW 7.8 11.7 5.6-5.6SSW30.06-- 39.6----
2024-02-27 12:00 amWNW 9.7 11.7----30.06+0.06- 39.6----
2024-02-26 11:50 pmWNW 9.7 13.6 5.6 75.6SSW30.06-- 39.6----
2024-02-26 11:40 pmWNW 9.7 13.6----30.06-- 39.6----
2024-02-26 11:30 pmWNW 11.7 13.6----30.05-- 39.6----
2024-02-26 11:20 pmWNW 9.7 11.7 5.2 75.3SSW30.04-- 39.6----
2024-02-26 11:10 pm W 5.8 9.7 5.2-5.3SSW30.05-- 39.6----
2024-02-26 11:00 pm W 5.8 7.8----30.05+0.08- 39.6----
2024-02-26 10:50 pm W 7.8 9.7 5.9 75.5SSW30.04-- 39.6----
2024-02-26 10:40 pm W 7.8 11.7----30.04-- 39.6----
2024-02-26 10:30 pm W 9.7 11.7----30.03-- 39.6----
2024-02-26 10:20 pm W 9.7 11.7 5.9 75.6SSW30.03-- 39.6----
2024-02-26 10:10 pm W 9.7 13.6 5.9-5.6SSW30.03-- 39.6----
2024-02-26 10:00 pm W 9.7 13.6----30.02+0.09- 39.6----
2024-02-26 09:50 pm W 9.7 11.7 5.9 75.6SSW30.02-- 39.6----
2024-02-26 09:40 pmWSW 9.7 13.6----30.02-- 39.6----
2024-02-26 09:30 pmWSW 9.7 11.7----30.01-- 39.6----
2024-02-26 09:20 pm W 9.7 13.6 6.2 75.7SSW30.00-- 39.6----
2024-02-26 09:10 pm W 9.7 13.6 6.2-5.7SSW30.00-- 39.6----
2024-02-26 09:00 pm W 9.7 13.6----29.99+0.09- 39.6----
2024-02-26 08:50 pm W 9.7 13.6 5.9 75.6SSW29.98-- 39.6----
2024-02-26 08:40 pm W 11.7 15.5 5.9-5.6SSW29.98-- 39.4----
2024-02-26 08:30 pmWSW 13.6 17.5----29.98-- 39.4----
2024-02-26 08:20 pmWSW 13.6 17.5 6.2 75.8 SW29.97-- 39.4----
2024-02-26 08:10 pmWSW 13.6 17.5 6.2-5.8 SW29.96-- 39.4----
2024-02-26 08:00 pmWSW 13.6 17.5----29.96+0.06- 39.4----
2024-02-26 07:50 pmWSW 13.6 17.5 6.2 75.7 SW29.96-- 39.4----

Detailed Wave Summary
for 44027 as of (7:40 pm AST)
2340 GMT on 02/27/2024:

These wave data are displayed in rounded times.

     

Click on the graph icon in the table below to see a time series plot of the last five days of that observation.

5-day plot - Significant Wave Height Significant Wave Height (WVHT): 3.6 ft
5-day plot - Swell Height Swell Height (SwH): 1.6 ft
5-day plot - Swell Period Swell Period (SwP): 10.0 sec
5-day plot - Swell Direction Swell Direction (SwD):SSE
5-day plot - Wind Wave Height Wind Wave Height (WWH): 3.0 ft
5-day plot - Wind Wave Period Wind Wave Period (WWP): 4.5 sec
5-day plot - Wind Wave Direction Wind Wave Direction (WWD):SSE
5-day plot - Wave Steepness Wave Steepness (STEEPNESS):VERY_STEEP
5-day plot - Average Wave Period Average Wave Period (APD): 4.4 sec
Previous observations
TIME
(AST)
5-day plot - Wave Height
WVHT
ft
5-day plot - Swell Height
SwH
ft
5-day plot - Swell Period
SwP
sec
5-day plot - Swell Direction
SwD
 
5-day plot - Wind Wave Height
WWH
ft
5-day plot - Wind Wave Period
WWP
sec
5-day plot - Wind Wave Direction
WWD
 
5-day plot - Wave Steepness
STEEPNESS
 
5-day plot - Average Wave Period
APD
sec
2024-02-27 07:10 pm 3.6 1.3 10.0SSE 3.3 5.6 SSW STEEP 4.4
2024-02-27 06:40 pm 3.6 1.6 9.1SSE 3.0 4.5 SSEVERY_STEEP 4.4
2024-02-27 06:10 pm 3.6 1.6 9.1SSE 3.3 5.9 S STEEP 4.4
2024-02-27 05:40 pm 3.3 1.6 9.1SSE 3.0 4.5 SSEVERY_STEEP 4.5
2024-02-27 05:10 pm 3.3 2.0 10.0SSE 3.0 5.9 SSW AVERAGE 4.5
2024-02-27 04:40 pm 3.6 2.0 6.2 S 3.0 4.8 SSE STEEP 4.7
2024-02-27 04:10 pm 3.3 2.3 5.9 S 2.3 4.8 SSE STEEP 4.7
2024-02-27 03:40 pm 3.6 2.6 5.9 S 2.0 4.3 S STEEP 4.7
2024-02-27 03:10 pm 3.6 2.6 5.3 S 2.3 4.0 SVERY_STEEP 4.6
2024-02-27 02:40 pm 3.9 3.0 5.6 S 2.3 4.8 SSE STEEP 4.7
2024-02-27 02:10 pm 3.6 3.3 6.2 S 1.6 3.7 S STEEP 4.6
2024-02-27 01:40 pm 3.6 2.6 5.9 S 2.6 3.8 S STEEP 4.5
2024-02-27 01:10 pm 3.9 2.0 9.1SSE 3.3 6.2 SSW STEEP 4.5
2024-02-27 12:40 pm 3.6 2.3 6.2SSW 3.0 5.3 SSW STEEP 4.3
2024-02-27 12:10 pm 3.6 2.6 6.2SSW 2.6 3.6 S STEEP 4.3
2024-02-27 11:40 am 3.6 2.6 6.7 S 2.6 4.8 SSW STEEP 4.4
2024-02-27 11:10 am 3.9 3.0 6.2SSW 2.6 5.6 SSW STEEP 4.7
2024-02-27 10:40 am 3.9 2.0 9.1SSE 3.3 5.9 SSW STEEP 5.1
2024-02-27 10:10 am 3.6 2.0 6.7SSW 3.0 5.9 S STEEP 5.0
2024-02-27 09:40 am 3.6 2.3 6.7SSW 2.6 4.2 S STEEP 5.2
2024-02-27 09:10 am 3.6 3.3 6.2SSW 2.0 5.0 SSW STEEP 5.4
2024-02-27 08:40 am 3.9 3.3 6.7SSW 1.6 4.5 SSW STEEP 5.6
2024-02-27 08:10 am 3.6 3.6 6.7 S 1.0 3.8 SW STEEP 5.7
2024-02-27 07:40 am 3.9 3.6 7.1 S 1.0 3.6 SW AVERAGE 5.9
2024-02-27 07:10 am 3.9 3.6 7.1SSW 1.0 4.0 SSW AVERAGE 5.8
2024-02-27 06:40 am 3.9 3.6 6.7SSW 1.0 3.0 S STEEP 5.8
2024-02-27 06:10 am 3.6 3.6 7.1SSW 1.0 3.4 S AVERAGE 5.8
2024-02-27 05:40 am 3.6 3.3 7.1SSW 1.0 4.0 S AVERAGE 5.7
2024-02-27 05:10 am 3.6 3.6 7.1SSW 1.0 3.6 SSW AVERAGE 6.0
2024-02-27 04:40 am 3.6 3.6 7.7SSW 1.0 3.8 S AVERAGE 6.0
2024-02-27 04:10 am 4.3 3.9 7.7SSW 1.0 3.7 S AVERAGE 6.1
2024-02-27 03:40 am 4.3 3.9 7.1SSW 1.0 3.8 SW AVERAGE 5.9
2024-02-27 03:10 am 4.6 4.3 7.7SSW 1.0 3.6 SW AVERAGE 6.1
2024-02-27 02:40 am 4.3 4.3 7.1SSW 1.3 4.0 S STEEP 5.9
2024-02-27 02:10 am 4.9 4.6 7.1 S 1.3 3.8 SSW STEEP 5.9
2024-02-27 01:40 am 4.6 4.6 7.1SSW 1.3 4.0 S STEEP 5.9
2024-02-27 01:10 am 4.9 4.9 7.1SSW 1.3 3.7 SW STEEP 5.9
2024-02-27 12:40 am 5.2 4.9 7.1SSW 1.3 3.2 SW STEEP 5.8
2024-02-27 12:10 am 5.6 5.2 6.7SSW 1.6 3.3 SW STEEP 5.6
2024-02-26 11:40 pm 5.6 4.9 6.7SSW 2.3 4.5 SW STEEP 5.6
2024-02-26 11:10 pm 5.2 4.9 7.1SSW 2.0 3.8 SW STEEP 5.3
2024-02-26 10:40 pm 5.9 5.6 7.1SSW 2.0 3.6 SW STEEP 5.5
2024-02-26 10:10 pm 5.9 5.2 7.1SSW 2.6 4.8 SSW STEEP 5.6
2024-02-26 09:40 pm 5.9 5.2 6.7SSW 3.0 4.5 SSW STEEP 5.6
2024-02-26 09:10 pm 6.2 5.6 7.1SSW 2.6 4.8 SSW STEEP 5.7
2024-02-26 08:40 pm 5.9 5.2 7.1SSW 3.3 4.0 SSW STEEP 5.6
2024-02-26 08:10 pm 6.2 4.6 7.1 SW 4.3 5.3 SSW STEEP 5.8

Plot of wave energy versus frequency (and period)